FW1042 Weather Reports


Display with metric or nautical units.
time (UTC)temp
F
wind
direction
speed
MPH
gust
MPH
rain 1hr
in
rain 24hr
in
rain mn
in
humidity
%
barometer
mb
20260906143544 88 0 1.0 3.0 0.00 0.00 0.00 68 1014.3
20260906143044 88 49 1.0 3.0 0.00 0.00 0.00 69 1014.3
20260906142544 87 330 1.0 3.0 0.00 0.00 0.00 70 1014.3
20260906142044 87 349 0.0 3.0 0.00 0.00 0.00 71 1014.3
20260906141543 86 178 0.0 2.0 0.00 0.00 0.00 72 1014.3
20260906141044 85 81 0.0 2.0 0.00 0.00 0.00 74 1014.4
20260906140547 85 61 0.0 2.0 0.00 0.00 0.00 75 1014.4
20260906140148 83 96 0.0 2.0 0.00 0.00 0.00 80 1014.5
20260906140124 84 40 0.0 2.0 0.00 0.00 0.00 78 1014.4
20260906135044 83 105 0.0 2.0 0.00 0.00 0.00 82 1014.3
20260906134544 82 155 0.0 3.0 0.00 0.00 0.00 85 1014.2
20260906134043 81 101 0.0 3.0 0.00 0.00 0.00 86 1014.2
20260906133544 80 47 0.0 2.0 0.00 0.00 0.00 87 1014.3
20260906133043 80 123 0.0 1.0 0.00 0.00 0.00 87 1014.2
20260906132540 80 138 0.0 2.0 0.00 0.00 0.00 87 1014.3
20260906132334 79 67 0.0 2.0 0.00 0.00 0.00 88 1014.3
20260906131837 79 70 0.0 0.0 0.00 0.00 0.00 88 1014.3
20260906131036 79 173 0.0 0.0 0.00 0.00 0.00 88 1014.2
20260906130535 79 190 0.0 0.0 0.00 0.00 0.00 88 1014.2
20260906130036 78 53 0.0 0.0 0.00 0.00 0.00 88 1014.3
20260906125536 78 71 0.0 0.0 0.00 0.00 0.00 88 1014.1
20260906125036 78 71 0.0 0.0 0.00 0.00 0.00 88 1014.1
20260906124825 78 74 0.0 0.0 0.00 0.00 0.00 88 1014.1
20260906124034 78 74 0.0 0.0 0.00 0.00 0.00 88 1014.1
20260906123828 78 80 0.0 0.0 0.00 0.00 0.00 88 1014.0
20260906123034 78 141 0.0 0.0 0.00 0.00 0.00 88 1013.9
20260906122534 78 141 0.0 0.0 0.00 0.00 0.00 87 1013.9
20260906122034 78 141 0.0 0.0 0.00 0.00 0.00 87 1013.8
20260906121534 78 141 0.0 0.0 0.00 0.00 0.00 87 1013.8
20260906121035 78 141 0.0 0.0 0.00 0.00 0.00 87 1013.6
20260906120534 78 141 0.0 0.0 0.00 0.00 0.00 86 1013.5
20260906120034 78 141 0.0 0.0 0.00 0.00 0.00 86 1013.4
20260906115533 78 141 0.0 0.0 0.00 0.00 0.00 86 1013.7
20260906115034 78 141 0.0 0.0 0.00 0.00 0.00 86 1013.6
20260906114538 78 141 0.0 0.0 0.00 0.00 0.00 86 1013.6
20260906114033 78 141 0.0 0.0 0.00 0.00 0.00 86 1013.5
20260906113534 78 141 0.0 0.0 0.00 0.00 0.00 85 1013.5
20260906113035 78 141 0.0 0.0 0.00 0.00 0.00 85 1013.4
20260906112534 78 141 0.0 0.0 0.00 0.00 0.00 85 1013.3
20260906112325 79 141 0.0 0.0 0.00 0.00 0.00 85 1013.2
20260906111533 79 141 0.0 0.0 0.00 0.00 0.00 85 1013.3
20260906111038 79 141 0.0 0.0 0.00 0.00 0.00 85 1013.3
20260906110532 79 141 0.0 1.0 0.00 0.00 0.00 85 1013.2
20260906110326 79 141 0.0 1.0 0.00 0.00 0.00 85 1013.2
20260906105531 79 146 0.0 0.0 0.00 0.00 0.00 85 1013.1
20260906105031 79 146 0.0 0.0 0.00 0.00 0.00 85 1013.0
20260906104532 79 142 0.0 0.0 0.00 0.00 0.00 84 1013.0
20260906104324 79 142 0.0 0.0 0.00 0.00 0.00 83 1013.1
20260906103535 79 142 0.0 0.0 0.00 0.00 0.00 83 1012.9
20260906103318 79 142 0.0 0.0 0.00 0.00 0.00 83 1013.0
20260906102532 79 142 0.0 0.0 0.00 0.00 0.00 83 1012.9
20260906102327 79 142 0.0 0.0 0.00 0.00 0.00 82 1012.9
20260906101532 80 142 0.0 0.0 0.00 0.00 0.00 82 1012.9
20260906101032 80 142 0.0 0.0 0.00 0.00 0.00 81 1012.9
20260906100527 80 142 0.0 0.0 0.00 0.00 0.00 82 1012.9
20260906100031 80 142 0.0 0.0 0.00 0.00 0.00 81 1012.8
20260906095827 80 142 0.0 0.0 0.00 0.00 0.00 81 1012.8
20260906095026 80 142 0.0 0.0 0.00 0.00 0.00 81 1012.9
20260906094526 80 142 0.0 0.0 0.00 0.00 0.00 81 1012.8
20260906094025 81 142 0.0 0.0 0.00 0.00 0.00 81 1012.8
20260906093526 81 142 0.0 1.0 0.00 0.00 0.00 81 1012.7
20260906093026 81 142 0.0 2.0 0.00 0.00 0.00 81 1012.5
20260906092813 81 156 1.0 4.0 0.00 0.00 0.00 80 1012.6
20260906092400 81 190 1.0 4.0 0.00 0.00 0.00 80 1012.7
20260906092355 81 193 1.0 4.0 0.00 0.00 0.00 80 1012.5
20260906091022 81 192 1.0 4.0 0.00 0.00 0.00 80 1012.5
20260906090813 81 140 2.0 5.0 0.00 0.00 0.00 80 1012.4
20260906090022 81 149 2.0 5.0 0.00 0.00 0.00 80 1012.3
20260906085522 81 185 1.0 4.0 0.00 0.00 0.00 80 1012.4
20260906085027 81 143 1.0 4.0 0.00 0.00 0.00 80 1012.4
20260906084518 81 152 1.0 4.0 0.00 0.00 0.00 80 1012.4
20260906084016 81 192 1.0 3.0 0.00 0.00 0.00 80 1012.3
20260906083811 81 158 1.0 2.0 0.00 0.00 0.00 79 1012.3
20260906083014 82 143 1.0 3.0 0.00 0.00 0.00 79 1012.3
20260906082512 82 176 1.0 4.0 0.00 0.00 0.00 79 1012.3
20260906082008 82 128 1.0 4.0 0.00 0.00 0.00 79 1012.3
20260906081508 82 166 1.0 3.0 0.00 0.00 0.00 79 1012.2
20260906081005 82 143 1.0 3.0 0.00 0.00 0.00 78 1012.1
20260906080507 82 171 2.0 3.0 0.00 0.00 0.00 78 1012.3
20260906080008 82 136 2.0 4.0 0.00 0.00 0.00 78 1012.4
20260906075503 82 154 1.0 4.0 0.00 0.00 0.00 78 1012.3
20260906075004 82 138 1.0 2.0 0.00 0.00 0.00 77 1012.4
20260906074754 82 161 1.0 2.0 0.00 0.00 0.00 77 1012.3
20260906074005 82 184 1.0 2.0 0.00 0.00 0.00 76 1012.2
20260906073504 82 184 1.0 3.0 0.00 0.00 0.00 76 1012.3
20260906073004 82 173 1.0 3.0 0.00 0.00 0.00 76 1012.4
20260906072831 83 151 1.0 4.0 0.00 0.00 0.00 75 1012.4
20260906072827 82 153 1.0 2.0 0.00 0.00 0.00 75 1012.4
20260906071447 83 159 1.0 4.0 0.00 0.00 0.00 75 1012.7
20260906070946 83 173 1.0 2.0 0.00 0.00 0.00 74 1012.6
20260906070445 83 151 1.0 3.0 0.00 0.00 0.00 74 1012.6
20260906065946 83 144 1.0 3.0 0.00 0.00 0.00 74 1012.7
20260906065443 83 137 1.0 4.0 0.00 0.00 0.00 73 1012.7
20260906064941 83 95 1.0 4.0 0.00 0.00 0.00 73 1012.7
20260906064737 83 157 1.0 4.0 0.00 0.00 0.00 73 1012.7
20260906063942 83 176 1.0 4.0 0.00 0.00 0.00 73 1012.8
20260906063444 83 174 1.0 3.0 0.00 0.00 0.00 73 1012.8
20260906062939 83 154 1.0 5.0 0.00 0.00 0.00 72 1012.6
20260906062732 83 155 1.0 5.0 0.00 0.00 0.00 72 1012.6
20260906061939 83 117 1.0 5.0 0.00 0.00 0.00 72 1012.6
20260906061438 84 151 1.0 2.0 0.00 0.00 0.00 72 1012.5
20260906060937 84 159 1.0 2.0 0.00 0.00 0.00 72 1012.6
20260906060431 84 151 0.0 2.0 0.00 0.00 0.00 72 1012.6
20260906055928 84 160 0.0 0.0 0.00 0.00 0.00 71 1012.7
20260906055427 84 159 0.0 1.0 0.00 0.00 0.00 71 1012.8
20260906054926 84 170 0.0 2.0 0.00 0.00 0.00 70 1012.7
20260906054722 84 170 0.0 2.0 0.00 0.00 0.00 70 1012.7
20260906053923 84 199 0.0 2.0 0.00 0.00 0.00 70 1012.6
20260906053422 84 199 0.0 2.0 0.00 0.00 0.00 70 1012.7
20260906052920 85 186 1.0 3.0 0.00 0.00 0.00 70 1012.7
20260906052417 85 182 1.0 4.0 0.00 0.00 0.00 69 1012.6
20260906051917 85 171 1.0 4.0 0.00 0.00 0.00 69 1012.7
20260906051416 85 180 1.0 5.0 0.00 0.00 0.00 69 1012.6
20260906050915 85 200 1.0 5.0 0.00 0.00 0.00 69 1012.7
20260906050416 85 175 2.0 5.0 0.00 0.00 0.00 68 1012.8
20260906045913 85 161 2.0 5.0 0.00 0.00 0.00 68 1012.7
20260906045413 85 182 1.0 4.0 0.00 0.00 0.00 68 1012.8
20260906044909 85 164 2.0 5.0 0.00 0.00 0.00 68 1012.8
20260906044409 85 150 2.0 5.0 0.00 0.00 0.00 68 1012.9
20260906043908 85 169 1.0 5.0 0.00 0.00 0.00 67 1012.6
20260906043409 86 167 1.0 5.0 0.00 0.00 0.00 67 1012.7
20260906042910 86 168 1.0 5.0 0.00 0.00 0.00 67 1012.6
20260906042409 86 167 2.0 5.0 0.00 0.00 0.00 67 1012.7
20260906041908 86 173 2.0 5.0 0.00 0.00 0.00 66 1012.5
20260906041409 86 161 2.0 5.0 0.00 0.00 0.00 66 1012.6
20260906041201 86 116 2.0 6.0 0.00 0.00 0.00 66 1012.5
20260906040406 86 182 2.0 6.0 0.00 0.00 0.00 65 1012.6
20260906035906 86 138 2.0 6.0 0.00 0.00 0.00 65 1012.5
20260906035411 87 157 2.0 6.0 0.00 0.00 0.00 65 1012.6
20260906034907 87 181 3.0 8.0 0.00 0.00 0.00 64 1012.6
20260906034405 87 175 3.0 8.0 0.00 0.00 0.00 64 1012.6
20260906033906 87 160 3.0 8.0 0.00 0.00 0.00 63 1012.5
20260906033403 87 169 3.0 7.0 0.00 0.00 0.00 63 1012.6
20260906032905 87 153 2.0 7.0 0.00 0.00 0.00 62 1012.5
20260906032401 87 172 2.0 4.0 0.00 0.00 0.00 62 1012.5
20260906032200 87 144 1.0 3.0 0.00 0.00 0.00 62 1012.5
20260906031400 87 145 2.0 4.0 0.00 0.00 0.00 62 1012.7
20260906030943 88 161 2.0 5.0 0.00 0.00 0.00 61 1012.7
20260906030926 88 180 2.0 5.0 0.00 0.00 0.00 61 1012.7
20260906025848 88 116 2.0 8.0 0.00 0.00 0.00 60 1012.6
20260906025348 88 166 2.0 8.0 0.00 0.00 0.00 60 1012.6
20260906024846 88 143 3.0 8.0 0.00 0.00 0.00 60 1012.5
20260906024347 88 134 4.0 8.0 0.00 0.00 0.00 59 1012.4
20260906023846 88 141 4.0 8.0 0.00 0.00 0.00 59 1012.4
20260906023350 89 175 3.0 8.0 0.00 0.00 0.00 59 1012.3
20260906022845 89 197 2.0 8.0 0.00 0.00 0.00 59 1012.2
20260906022346 89 121 2.0 7.0 0.00 0.00 0.00 58 1012.1
20260906021845 89 167 3.0 7.0 0.00 0.00 0.00 58 1012.0
20260906021701 90 165 3.0 7.0 0.00 0.00 0.00 57 1012.0
20260906021157 90 87 2.0 7.0 0.00 0.00 0.00 56 1011.7
20260906020457 91 71 2.0 7.0 0.00 0.00 0.00 55 1011.9
20260906020429 90 190 2.0 7.0 0.00 0.00 0.00 56 1011.9
20260906015340 91 163 3.0 8.0 0.00 0.00 0.00 54 1011.8
20260906014840 92 135 3.0 9.0 0.00 0.00 0.00 53 1011.7
20260906014339 92 142 3.0 10.0 0.00 0.00 0.00 52 1011.5
20260906013838 92 155 4.0 10.0 0.00 0.00 0.00 52 1011.4
20260906013337 93 170 3.0 9.0 0.00 0.00 0.00 51 1011.2
20260906012837 93 150 3.0 9.0 0.00 0.00 0.00 51 1011.1
20260906012337 94 176 3.0 9.0 0.00 0.00 0.00 50 1011.1
20260906011837 94 180 2.0 8.0 0.00 0.00 0.00 48 1011.0
20260906011336 94 140 2.0 5.0 0.00 0.00 0.00 47 1010.8
20260906010834 94 166 2.0 8.0 0.00 0.00 0.00 46 1010.7
20260906010335 94 155 2.0 8.0 0.00 0.00 0.00 46 1010.7
20260906005833 95 123 1.0 4.0 0.00 0.00 0.00 45 1010.7
20260906005331 95 119 1.0 4.0 0.00 0.00 0.00 45 1010.7
20260906005126 95 173 2.0 7.0 0.00 0.00 0.00 44 1010.6
20260906004336 95 148 2.0 7.0 0.00 0.00 0.00 44 1010.8
20260906003829 96 157 2.0 6.0 0.00 0.00 0.00 44 1010.7
20260906003624 96 151 2.0 6.0 0.00 0.00 0.00 43 1010.8
20260906002826 96 122 2.0 6.0 0.00 0.00 0.00 43 1010.7
20260906002326 96 98 2.0 8.0 0.00 0.00 0.00 43 1010.6
20260906001826 97 136 2.0 8.0 0.00 0.00 0.00 42 1010.6
20260906001327 97 131 2.0 6.0 0.00 0.00 0.00 41 1010.7
20260906000826 98 138 3.0 7.0 0.00 0.00 0.00 41 1010.6
20260906000328 98 96 3.0 7.0 0.00 0.00 0.00 40 1010.6
20260905235827 99 157 2.0 6.0 0.00 0.00 0.00 40 1010.6
20260905235327 99 178 3.0 6.0 0.00 0.00 0.00 39 1010.2
20260905234827 99 109 2.0 6.0 0.00 0.00 0.00 40 1010.4
20260905234328 99 78 2.0 6.0 0.00 0.00 0.00 39 1010.1
20260905233826 100 182 2.0 5.0 0.00 0.00 0.00 39 1010.1
20260905233322 100 32 2.0 6.0 0.00 0.00 0.00 39 1010.2
20260905232824 100 13 2.0 6.0 0.00 0.00 0.00 39 1010.4
20260905232323 100 161 1.0 5.0 0.00 0.00 0.00 39 1010.4
20260905231823 100 209 2.0 9.0 0.00 0.00 0.00 38 1010.2
20260905231615 100 81 2.0 9.0 0.00 0.00 0.00 39 1010.4
20260905230820 100 146 1.0 7.0 0.00 0.00 0.00 38 1010.5
20260905230321 100 109 2.0 8.0 0.00 0.00 0.00 38 1010.5
20260905225820 100 155 2.0 8.0 0.00 0.00 0.00 38 1010.4
20260905225323 101 270 2.0 4.0 0.00 0.00 0.00 39 1010.5
20260905224821 100 193 2.0 8.0 0.00 0.00 0.00 39 1010.4
20260905224321 100 181 2.0 8.0 0.00 0.00 0.00 38 1010.4
20260905224110 101 167 1.0 5.0 0.00 0.00 0.00 39 1010.4
20260905223322 101 130 1.0 4.0 0.00 0.00 0.00 38 1010.2
20260905222820 101 197 2.0 8.0 0.00 0.00 0.00 38 1010.2
20260905222314 101 107 2.0 8.0 0.00 0.00 0.00 37 1010.4
20260905222106 101 180 2.0 5.0 0.00 0.00 0.00 38 1010.2
20260905221305 101 318 2.0 5.0 0.00 0.00 0.00 36 1010.4
20260905221058 101 177 2.0 5.0 0.00 0.00 0.00 37 1010.5
20260905220304 101 54 2.0 7.0 0.00 0.00 0.00 37 1010.6
20260905215804 101 184 2.0 7.0 0.00 0.00 0.00 38 1010.6
20260905215306 101 218 2.0 6.0 0.00 0.00 0.00 39 1010.6
20260905214804 101 229 3.0 8.0 0.00 0.00 0.00 39 1010.6
20260905214305 101 178 3.0 8.0 0.00 0.00 0.00 39 1010.6
20260905213808 101 17 2.0 6.0 0.00 0.00 0.00 39 1010.7
20260905213305 101 355 2.0 6.0 0.00 0.00 0.00 39 1010.8
20260905212804 101 97 2.0 9.0 0.00 0.00 0.00 40 1010.8
20260905212306 101 254 3.0 9.0 0.00 0.00 0.00 40 1010.9
20260905212103 101 157 2.0 8.0 0.00 0.00 0.00 40 1011.0
20260905211601 101 291 2.0 5.0 0.00 0.00 0.00 42 1011.1
20260905210800 100 171 1.0 4.0 0.00 0.00 0.00 41 1011.1
20260905210254 99 303 1.0 3.0 0.00 0.00 0.00 41 1011.2
20260905205749 99 279 3.0 2.0 0.00 0.00 0.00 41 1011.3
20260905205359 99 184 3.0 8.0 0.00 0.00 0.00 42 1011.4
20260905204602 98 163 2.0 7.0 0.00 0.00 0.00 42 1011.4
20260905204103 99 148 1.0 7.0 0.00 0.00 0.00 42 1011.6
20260905203604 99 254 1.0 4.0 0.00 0.00 0.00 43 1011.8
20260905203103 100 234 1.0 4.0 0.00 0.00 0.00 42 1011.7
20260905202602 99 132 1.0 4.0 0.00 0.00 0.00 45 1011.7
20260905202103 98 265 1.0 4.0 0.00 0.00 0.00 43 1011.9
20260905201601 98 110 2.0 7.0 0.00 0.00 0.00 44 1012.0
20260905201100 98 196 2.0 7.0 0.00 0.00 0.00 45 1012.0
20260905200600 99 121 1.0 6.0 0.00 0.00 0.00 41 1012.1
20260905200354 99 43 2.0 6.0 0.00 0.00 0.00 42 1012.2
20260905195558 98 80 2.0 5.0 0.00 0.00 0.00 44 1012.3
20260905195059 98 138 2.0 5.0 0.00 0.00 0.00 44 1012.3
20260905194557 98 160 1.0 6.0 0.00 0.00 0.00 44 1012.3
20260905194351 98 300 2.0 6.0 0.00 0.00 0.00 43 1012.4
20260905193558 99 96 1.0 6.0 0.00 0.00 0.00 44 1012.5
20260905193056 99 74 2.0 6.0 0.00 0.00 0.00 43 1012.5
20260905192855 99 148 2.0 6.0 0.00 0.00 0.00 45 1012.6
20260905192056 98 167 3.0 7.0 0.00 0.00 0.00 45 1012.8
20260905191556 99 98 3.0 7.0 0.00 0.00 0.00 44 1012.9
20260905191055 98 254 2.0 7.0 0.00 0.00 0.00 45 1013.1
20260905190554 98 53 2.0 7.0 0.00 0.00 0.00 45 1013.1
20260905190052 98 168 2.0 7.0 0.00 0.00 0.00 46 1013.1
20260905185553 98 241 2.0 6.0 0.00 0.00 0.00 46 1013.1
20260905185343 97 184 2.0 7.0 0.00 0.00 0.00 48 1013.3
20260905184553 97 191 3.0 7.0 0.00 0.00 0.00 47 1013.5
20260905184052 97 172 2.0 6.0 0.00 0.00 0.00 49 1013.5
20260905183549 96 329 2.0 5.0 0.00 0.00 0.00 47 1013.5
20260905183051 97 168 2.0 8.0 0.00 0.00 0.00 46 1013.6
20260905182548 97 332 3.0 8.0 0.00 0.00 0.00 46 1013.7
20260905182048 97 140 2.0 6.0 0.00 0.00 0.00 47 1013.8
20260905181546 97 24 2.0 8.0 0.00 0.00 0.00 46 1013.7
20260905181044 97 63 3.0 8.0 0.00 0.00 0.00 45 1013.8
20260905180544 97 175 2.0 7.0 0.00 0.00 0.00 46 1013.9
20260905180332 96 158 2.0 5.0 0.00 0.00 0.00 48 1013.9
20260905175544 96 111 2.0 6.0 0.00 0.00 0.00 50 1014.1
20260905175045 96 112 2.0 7.0 0.00 0.00 0.00 49 1014.1
20260905174544 96 138 2.0 7.0 0.00 0.00 0.00 49 1014.1
20260905174040 96 192 2.0 7.0 0.00 0.00 0.00 49 1014.3
20260905173538 95 248 2.0 7.0 0.00 0.00 0.00 50 1014.3
20260905173038 96 207 2.0 6.0 0.00 0.00 0.00 49 1014.3
20260905172538 95 232 2.0 6.0 0.00 0.00 0.00 53 1014.4
20260905172038 95 186 2.0 5.0 0.00 0.00 0.00 53 1014.5
20260905171538 94 211 2.0 6.0 0.00 0.00 0.00 53 1014.6
20260905171039 94 205 2.0 6.0 0.00 0.00 0.00 53 1014.6
20260905170538 94 208 2.0 6.0 0.00 0.00 0.00 54 1014.6
20260905170038 94 171 2.0 5.0 0.00 0.00 0.00 54 1014.7
20260905165538 94 140 2.0 8.0 0.00 0.00 0.00 56 1014.8
20260905165041 93 149 2.0 8.0 0.00 0.00 0.00 56 1014.9
20260905164538 93 169 2.0 7.0 0.00 0.00 0.00 56 1014.9
20260905164038 92 303 1.0 5.0 0.00 0.00 0.00 57 1014.8
20260905163537 92 355 1.0 4.0 0.00 0.00 0.00 56 1014.9
20260905163036 92 257 2.0 5.0 0.00 0.00 0.00 57 1014.8
20260905162536 92 34 1.0 5.0 0.00 0.00 0.00 56 1014.9
20260905162034 92 122 1.0 6.0 0.00 0.00 0.00 57 1014.9
20260905161530 92 211 1.0 6.0 0.00 0.00 0.00 58 1014.9
20260905161030 92 348 1.0 6.0 0.00 0.00 0.00 58 1014.7
20260905160530 91 173 2.0 6.0 0.00 0.00 0.00 59 1014.9
20260905160326 91 288 2.0 5.0 0.00 0.00 0.00 59 1014.9
20260905155530 91 233 2.0 5.0 0.00 0.00 0.00 59 1014.9
20260905155030 91 286 2.0 6.0 0.00 0.00 0.00 60 1014.9
20260905154828 91 280 1.0 6.0 0.00 0.00 0.00 60 1014.8
20260905154328 91 242 1.0 4.0 0.00 0.00 0.00 61 1014.8
20260905153529 91 172 2.0 5.0 0.00 0.00 0.00 62 1014.9
20260905153024 90 143 2.0 5.0 0.00 0.00 0.00 63 1014.9
20260905152619 89 178 1.0 5.0 0.00 0.00 0.00 64 1014.8
20260905152556 90 25 2.0 5.0 0.00 0.00 0.00 63 1014.9
20260905151524 89 178 1.0 5.0 0.00 0.00 0.00 64 1014.9
20260905151024 89 183 2.0 5.0 0.00 0.00 0.00 64 1014.9
20260905150523 89 304 2.0 4.0 0.00 0.00 0.00 64 1015.0
20260905150027 88 284 1.0 6.0 0.00 0.00 0.00 64 1014.9
20260905145523 88 336 1.0 6.0 0.00 0.00 0.00 66 1014.8
20260905145022 88 270 1.0 6.0 0.00 0.00 0.00 66 1014.9
20260905144520 88 309 2.0 6.0 0.00 0.00 0.00 66 1014.9
20260905144020 88 255 2.0 6.0 0.00 0.00 0.00 67 1014.7